User: anonymous   Login
Location: Edemissen
(51.7689°N, 9.8634°E)
Time: 17:45:07
(UTC+00:00)
Language:

STARLINK-1262 - Orbit

View from above orbital plane
View from above orbital plane
View from above satellite
View from above satellite

Ground track
Ground track

The orbit data is extracted from the following two-line orbital elements,

1 45366U 20019G   25317.25320685  .00007539  00000-0  52414-3 0  9998
2 45366  53.0554 329.3189 0000953  55.7749 304.3330 15.06421671312181
Epoch (UTC): 13 November 2025 06:04:37
Eccentricity: 0.0000953
inclination: 53.0554°
perigee height: 546 km
apogee height: 548 km
right ascension of ascending node: 329.3189°
argument of perigee: 55.7749°
revolutions per day: 15.06421671
mean anomaly at epoch: 304.3330°
orbit number at epoch: 31218

The dashed part of the orbit path shows where the satellite is in the earth's shadow,  

DLR